Dati stazioni meteo Trentino Alto Adige - Rete MeteoNetwork


Regione Trentino Alto Adige - Nazionale

Dati realtime - Dati giornalieri

Sfoglia tabella
Regione selezionata: Trentino Alto Adige
Filtra dati per regione

Stazione Prov. Temperatura Umidità Dewpoint Pioggia Rateo Pioggia Vento Pressione Aggiorn.
Giovo TN 23.7°C 57% 14.6°C 0 mm 0 mm/h 1.6 km/h 1014.8 hPa 13:59
Trento TN 26.6°C 51% 15.6°C 0 mm 0 mm/h 9.4 km/h 1011 hPa 13:57
Vattaro TN 21.1°C 67% 14.7°C 0 mm 0 mm/h 0 km/h 1013.2 hPa 13:59
Trento TN 26.2°C 58% 17.3°C 0.2 mm 0 mm/h 6.8 km/h 1012.4 hPa 13:56
Lavis TN 25.7°C 57% 16.7°C 0.2 mm 0 mm/h 4.8 km/h 1013.2 hPa 13:55
Padergnone TN 25.1°C 49% 13.6°C 0 mm 0 mm/h 6.7 km/h 1012.6 hPa 13:45
Ortisei BZ 6.9°C 90% 5.3°C 8.1 mm 0 mm/h 14 km/h 1015.2 hPa 13:54
Trento TN 21.9°C 65% 15°C 1 mm 0 mm/h 0 km/h 1014.2 hPa 13:50
Bolzano BZ 17.7°C 0% 11.7°C 0.3 mm 0 mm/h 0 km/h 1012.4 hPa 13:59
Daiano TN 18.5°C 66% 12°C 5 mm 0 mm/h 4.8 km/h 1012.6 hPa 14:00
Arco TN 26.2°C 0% 14.2°C 0 mm 0 mm/h 8.1 km/h 1011.5 hPa 13:50
Riva del Garda TN 25.6°C 45% 12.7°C 0 mm 0 mm/h 3.2 km/h 1011.5 hPa 13:50
Ala TN 25.9°C 46% 13.4°C 0.2 mm 0 mm/h 4.6 km/h 1011.4 hPa 13:56
Levico Terme TN 24.8°C 53% 14.6°C 0 mm 0 mm/h 0 km/h 1012.3 hPa 13:59
Rovereto TN 25.6°C 56% 16.2°C 0 mm 0 mm/h 0 km/h 1000.6 hPa 14:04
Avio TN 28.1°C 40% 13.2°C 0 mm 0 mm/h 3 km/h 1012.1 hPa 13:59
Arco TN 26.4°C 46% 13.8°C 0 mm 0 mm/h 3.2 km/h 1012.1 hPa 13:59
Trambileno TN 21.8°C 66% 15°C 0 mm 0 mm/h 3.2 km/h 1011.1 hPa 13:59
Merano BZ 25.9°C 49% 14.4°C 0 mm 0 mm/h 1.7 km/h 1012.1 hPa 13:54
Marebbe BZ 17.9°C 68% 11.7°C 0.3 mm 0 mm/h 0 km/h 1012.2 hPa 13:56
Folgaria TN 17.9°C 64% 11°C 0 mm 0 mm/h 4.8 km/h 0 hPa 13:59
Baselga di Pinè TN 19.8°C 60% 11.8°C 0.2 mm 0 mm/h 7 km/h 1013 hPa 13:59
Andalo TN 18.3°C 73% 13.4°C 1.8 mm 0 mm/h 16.1 km/h 1010.4 hPa 13:59
Terzolas TN 18.3°C 69% 12.5°C 1.8 mm 0 mm/h 0 km/h 931.5 hPa 13:57
Besenello TN 25.4°C 59% 16.8°C 0 mm 0 mm/h 3.7 km/h 1012.3 hPa 13:57
Ala TN 25.7°C 0% 0°C 0 mm 0 mm/h 0 km/h 0 hPa 13:45
Ala TN 20.1°C 0% 0°C 0 mm 0 mm/h 2.9 km/h 0 hPa 13:45
Aldeno TN 24.1°C 0% 0°C 0 mm 0 mm/h 9.7 km/h 0 hPa 13:45
Arco TN 26.6°C 0% 0°C 0 mm 0 mm/h 0 km/h 0 hPa 13:45
Bezzecca TN 20.5°C 0% 0°C 0 mm 0 mm/h 0 km/h 0 hPa 13:45
Bieno TN 20.3°C 0% 0°C 0 mm 0 mm/h 0 km/h 0 hPa 13:45
Brentonico TN 20.7°C 0% 0°C 0 mm 0 mm/h 0 km/h 0 hPa 13:45
Canal San Bovo TN 20.2°C 0% 0°C 0 mm 0 mm/h 0 km/h 0 hPa 13:45
Canazei TN 16.1°C 0% 0°C 7 mm 0 mm/h 8.3 km/h 0 hPa 13:45
Canal San Bovo TN 19.9°C 0% 0°C 0 mm 0 mm/h 3.6 km/h 0 hPa 13:45
Capriana TN 18.1°C 0% 0°C 2.4 mm 0 mm/h 0 km/h 0 hPa 13:45
Peio TN 6.8°C 0% 0°C 0.2 mm 0 mm/h 3.6 km/h 0 hPa 13:45
Castello Tesino TN 17.5°C 0% 0°C 0 mm 0 mm/h 6.1 km/h 0 hPa 13:45
Cavalese TN 19.9°C 0% 0°C 6.8 mm 0 mm/h 6.5 km/h 0 hPa 13:45
Cembra TN 22.3°C 0% 0°C 0.2 mm 0 mm/h 2.2 km/h 0 hPa 13:45
Centa San Nicolò TN 19.9°C 0% 0°C 0 mm 0 mm/h 0 km/h 0 hPa 13:45
Tesero TN 13.2°C 0% 0°C 5.2 mm 0 mm/h 0 km/h 0 hPa 13:45
Fai della Paganella TN 10.9°C 0% 0°C 1.6 mm 0 mm/h 0 km/h 0 hPa 13:45
Cles TN 20.6°C 0% 0°C 1.2 mm 0 mm/h 0 km/h 0 hPa 13:45
Daone TN 10.5°C 0% 0°C 0.2 mm 0 mm/h 4.3 km/h 0 hPa 13:45
Daone TN 17.9°C 0% 0°C 0.4 mm 0 mm/h 0 km/h 0 hPa 13:45
Pinzolo TN 10.6°C 0% 0°C 0.6 mm 0 mm/h 10.1 km/h 0 hPa 13:45
Folgaria TN 17.2°C 0% 0°C 0 mm 0 mm/h 0 km/h 0 hPa 13:45
Fondo TN 18.7°C 0% 0°C 1.8 mm 0 mm/h 0 km/h 0 hPa 13:45
Tiarno di Sopra TN 19.4°C 0% 0°C 0 mm 0 mm/h 0 km/h 0 hPa 13:45
Giustino TN 18.4°C 0% 0°C 0.6 mm 0 mm/h 0 km/h 0 hPa 13:45
Grigno TN 20.6°C 0% 0°C 0.2 mm 0 mm/h 2.2 km/h 0 hPa 13:45
Grigno TN 10.7°C 0% 0°C 0.6 mm 0 mm/h 0 km/h 0 hPa 13:45
Lona-Lases TN 21.6°C 0% 0°C 0 mm 0 mm/h 0 km/h 0 hPa 13:45
Lavarone TN 18.3°C 0% 0°C 0 mm 0 mm/h 0 km/h 0 hPa 13:45
Levico Terme TN 23.6°C 0% 0°C 0 mm 0 mm/h 3.6 km/h 0 hPa 13:45
Malè TN 17.8°C 0% 0°C 0.4 mm 0 mm/h 6.5 km/h 0 hPa 13:45
Mezzana TN 18.4°C 0% 0°C 0.4 mm 0 mm/h 9.4 km/h 0 hPa 13:45
Mezzano TN 24.5°C 0% 0°C 0 mm 0 mm/h 8.6 km/h 0 hPa 13:45
Mezzolombardo TN 24.1°C 0% 0°C 1.4 mm 0 mm/h 0 km/h 0 hPa 13:45
Moena TN 18.6°C 0% 0°C 14.4 mm 0 mm/h 0 km/h 0 hPa 13:45
Molveno TN 18.4°C 0% 0°C 0.8 mm 0 mm/h 0 km/h 0 hPa 13:45
Montagne TN 19.4°C 0% 0°C 0.6 mm 0 mm/h 0 km/h 0 hPa 13:45
Trento TN 14.1°C 0% 0°C 0.4 mm 0 mm/h 7.2 km/h 0 hPa 13:45
Ragoli TN 7.8°C 0% 0°C 0.4 mm 0 mm/h 0 km/h 0 hPa 13:45
Mori TN 25.7°C 0% 0°C 0 mm 0 mm/h 0 km/h 0 hPa 13:45
Castello Tesino TN 13.2°C 0% 0°C 0 mm 0 mm/h 4 km/h 0 hPa 13:45
Tonadico TN 15.4°C 0% 0°C 1.2 mm 0 mm/h 0 km/h 0 hPa 13:45
Vigo di Fassa TN 12.9°C 0% 0°C 15 mm 0 mm/h 0 km/h 0 hPa 13:45
Ruffrè-Mendola TN 17.3°C 0% 0°C 3.6 mm 0 mm/h 0 km/h 0 hPa 13:45
Vallarsa TN 15.5°C 0% 0°C 0 mm 0 mm/h 10.8 km/h 0 hPa 13:45
Siror TN 10.3°C 0% 0°C 8.8 mm 0 mm/h 10.1 km/h 0 hPa 13:45
Folgaria TN 14.8°C 0% 0°C 0 mm 0 mm/h 10.8 km/h 0 hPa 13:45
Vermiglio TN 10.9°C 0% 0°C 0.4 mm 0 mm/h 13.7 km/h 0 hPa 13:45
Predazzo TN 9.2°C 0% 0°C 6.2 mm 0 mm/h 5.8 km/h 0 hPa 13:45
Peio TN 12.6°C 0% 0°C 0.6 mm 0 mm/h 4.7 km/h 0 hPa 13:45
Pergine Valsugana TN 23.7°C 0% 0°C 0 mm 0 mm/h 0 km/h 0 hPa 13:45
Canazei TN 11.2°C 0% 0°C 8.4 mm 0 mm/h 0 km/h 0 hPa 13:45
Peio TN 13.4°C 0% 0°C 0.2 mm 0 mm/h 0 km/h 0 hPa 13:45
Pieve di Bono TN 22.6°C 0% 0°C 0.6 mm 0 mm/h 0 km/h 0 hPa 13:45
Pieve Tesino TN 15.5°C 0% 0°C 0.2 mm 0 mm/h 0 km/h 0 hPa 13:45
Pinzolo TN 19.1°C 0% 0°C 0.4 mm 0 mm/h 10.4 km/h 0 hPa 13:45
Pinzolo TN 12.6°C 0% 0°C 0.6 mm 0 mm/h 0 km/h 0 hPa 13:45
Pinzolo TN 9.9°C 0% 0°C 0.4 mm 0 mm/h 0 km/h 0 hPa 13:45
Predazzo TN 19°C 0% 0°C 3.4 mm 0 mm/h 0 km/h 0 hPa 13:45
Rabbi TN 15.6°C 0% 0°C 0.6 mm 0 mm/h 4.3 km/h 0 hPa 13:45
Romeno TN 17.9°C 0% 0°C 0.2 mm 0 mm/h 0 km/h 0 hPa 13:45
Rovereto TN 24.7°C 0% 0°C 0 mm 0 mm/h 3.6 km/h 0 hPa 13:45
San Lorenzo in Banale TN 20.1°C 0% 0°C 0.4 mm 0 mm/h 4.7 km/h 0 hPa 13:45
San Martino di Castrozza TN 14.9°C 0% 0°C 0.2 mm 0 mm/h 3.2 km/h 0 hPa 13:45
Padergnone TN 23.6°C 0% 0°C 0 mm 0 mm/h 0 km/h 0 hPa 13:45
Sant'Orsola Terme TN 20.8°C 0% 0°C 0 mm 0 mm/h 0 km/h 0 hPa 13:45
Segonzano TN 21.3°C 0% 0°C 1 mm 0 mm/h 0 km/h 0 hPa 13:45
Spormaggiore TN 21.8°C 0% 0°C 3.2 mm 0 mm/h 0 km/h 0 hPa 13:45
Storo TN 22°C 0% 0°C 0 mm 0 mm/h 0 km/h 0 hPa 13:45
Telve TN 23.3°C 0% 0°C 0 mm 0 mm/h 0 km/h 0 hPa 13:45
Telve TN 18.6°C 0% 0°C 0 mm 0 mm/h 0 km/h 0 hPa 13:45
Tenno TN 21.9°C 0% 0°C 0 mm 0 mm/h 0 km/h 0 hPa 13:45
Terragnolo TN 20.2°C 0% 0°C 0 mm 0 mm/h 0 km/h 0 hPa 13:45
Tione di Trento TN 21.3°C 0% 0°C 1 mm 0 mm/h 5.8 km/h 0 hPa 13:45
Tonadico TN 19.5°C 0% 0°C 0.4 mm 0 mm/h 0 km/h 0 hPa 13:45
Nago-Torbole TN 25.3°C 0% 0°C 0 mm 0 mm/h 4.3 km/h 0 hPa 13:45
Tiarno di Sopra TN 12.9°C 0% 0°C 0.2 mm 0 mm/h 4.7 km/h 0 hPa 13:45
Trento TN 23.8°C 0% 0°C 0 mm 0 mm/h 0 km/h 0 hPa 13:45
Trento TN 23°C 0% 0°C 0.2 mm 0 mm/h 6.1 km/h 0 hPa 13:45
Trento TN 23.7°C 0% 0°C 0 mm 0 mm/h 0 km/h 0 hPa 13:45
Trento TN 25.1°C 0% 0°C 0.2 mm 0 mm/h 3.6 km/h 0 hPa 13:45
Tres TN 18.5°C 0% 0°C 1.6 mm 0 mm/h 0 km/h 0 hPa 13:45
Breguzzo TN 14.9°C 0% 0°C 2.8 mm 0 mm/h 0 km/h 0 hPa 13:45
Mezzano TN 18.7°C 0% 0°C 0 mm 0 mm/h 0 km/h 0 hPa 13:45
Borgo Valsugana TN 18.1°C 0% 0°C 0 mm 0 mm/h 0 km/h 0 hPa 13:45
Vallarsa TN 22°C 0% 0°C 0 mm 0 mm/h 0 km/h 0 hPa 13:45
Zambana TN 23.4°C 0% 0°C 0.4 mm 0 mm/h 0 km/h 0 hPa 13:45
Ziano di Fiemme TN 14.9°C 0% 0°C 16.2 mm 0 mm/h 0 km/h 0 hPa 13:45
Borgo Valsugana TN 23.2°C 36% 7.3°C 0 mm 0 mm/h 3.6 km/h 1012 hPa 13:59
Trento TN 25.4°C 51% 14.6°C 0.2 mm 0 mm/h 11.3 km/h 1011.3 hPa 13:59
Pinzolo TN 13.3°C 75% 9°C 0.4 mm 0 mm/h 16.1 km/h 1016.5 hPa 13:57
Fiavè TN 19.2°C 82% 16°C 1.2 mm 0 mm/h 3.3 km/h 1012.1 hPa 13:59
Calliano TN 24.8°C 56% 15.4°C 0 mm 0 mm/h 0 km/h 1011.3 hPa 13:59
Siror TN 22.4°C 53% 12.2°C 0 mm 0 mm/h 0 km/h 1013.5 hPa 13:59
Bleggio Superiore TN 20.9°C 72% 15.7°C 1.2 mm 0 mm/h 6.9 km/h 1011.3 hPa 13:58
Isera TN 24.4°C 56% 15.1°C 0 mm 0 mm/h 3.9 km/h 1011.5 hPa 14:00
Fiavè TN 13.3°C 88% 11.4°C 2.2 mm 0 mm/h 4.9 km/h 1009.8 hPa 13:58
Bleggio Inferiore TN 16.7°C 80% 13.3°C 0.4 mm 0 mm/h 0.5 km/h 1013.8 hPa 13:59
Bressanone BZ 21°C 63% 13.9°C 4.4 mm 0 mm/h 0 km/h 1011.3 hPa 13:59
Cavedine TN 23.3°C 57% 14.4°C 0 mm 0 mm/h 8 km/h 1013.9 hPa 13:38
Baselga di Pinè TN 11.1°C 86% 8.9°C 0.4 mm 0 mm/h 3.6 km/h 1013.9 hPa 14:00
Badia BZ 16.2°C 55% 7.1°C 11 mm 0 mm/h 20.9 km/h 1011.6 hPa 13:59